CZ-6A DEB

Satellite information

Favourite Embed

Satellite Type and Status

DEBRISIN ORBIT

Key statistics

Satellite CZ-6A DEB at a glance.

Uptime

335

Days in orbit

Revolutions

≈ 14.5

Per day

Orbit

LEO

Low Earth Orbit

Inclination

89.0

Latest

Satellite identification and parameters

Extended collection of information and parameters for CZ-6A DEB.

Object identification

Identified? True

Debris? True

Object name: CZ-6A DEB

International designator: 2024-140WX

Object number (NORAD): 61382

Object ID (CCSDS): 61382

Country: PEOPLES REPUBLIC OF CHINA (PRC)

Current information (Y/N): Y

RCS size: SMALL

Orbital parameters

Period: 99.43 minutes

Inclination: 88.9514 deg

SMA: 7109.484 km

Apoapsis: 793.616 km

Periapsis: 669.081 km

RAAN: 309.8408 deg

Eccentricy: 0.0087584

Argument of periapsis: 40.6724 deg

Mean anomaly: 320.0979 deg

Mean motion: 14.48257095 rev/day

Mean motion (dot): 0.00002527 rev/day2

B* drag term: 0.00064079 1/REarth

Two-line elements (TLE)

Creation date: July 6, 2025, 10:36 p.m.

Reference frame: TEME

Reference center: EARTH

Epoch: July 6, 2025, 2:31 p.m. UTC

TLE line 0: 0 CZ-6A DEB

TLE line 1: 1 61382U 24140WX 25187.60492845 .00002527 00000-0 64079-3 0 9997

TLE line 2: 2 61382 88.9514 309.8408 0087584 40.6724 320.0979 14.48257095 44018

Live tracking on map

Real-time ground track for satellite CZ-6A DEB.

In-orbit conjunctions

A list of the most updated potential collisions computed for object CZ-6A DEB.

Target Orbit TCA Probability of collision Miss distance Type
DELTA 1 DEB LEO 2025-06-20 21:09:01 0.000253747 346.0 (m) DEBRIS
IRIDIUM 33 DEB LEO 2025-02-24 21:18:19 0.0002263425 728.0 (m) DEBRIS
CZ-4 DEB SSO 2024-12-20 08:36:52 0.0004320087 268.0 (m) DEBRIS
FENGYUN 1C DEB SSO 2024-10-20 03:48:26 0.0001294156 845.0 (m) DEBRIS

Associated space launch

18 Low Earth Orbit communication satellites with Ku, Q and V band payloads for the G60 constellation operated by Shanghai Spacecom Satellite Technology (SSST) with funding backed by the Shanghai local government. Initial constellation will consist of 1296 satellites by 2027 with long term plans to expand it to 12000 satellites.

CZ-6A DEB was lifted into orbit during the mission ‘Long March 6A | G60 Polar Group 01’, on board a Long March 6A space rocket.

The launch took place on Aug. 6, 2024, 6:42 a.m. from Launch Complex 9A.

For more information about the launch, click the button.

Launch to space Long March 6A | G60 Polar Group 01
Long March 6A | G60 Polar Group 01

Agency: N/A

Status: Launch Successful

Launch date: Aug. 6, 2024, 6:42 a.m. UTC

Rocket: Long March 6A

Launch pad: Launch Complex 9A

Location: Taiyuan Satellite Launch Center, People's Republic of China

...

Latest news about this satellite

News about space launch
Brightness of first Chinese broadband constellation satellites alarms astronomers

The first satellites of a Chinese broadband constellation are significantly brighter than those of Western systems, posing a new challenge for astronomers.

News about space launch
Chinese rocket stage breaks up into cloud of more than 700 pieces of space debris

HELSINKI — A Chinese Long March 6A rocket’s upper stage has fragmented into a cloud of over 700 pieces of space debris, adding to concerns about long-term orbital safety. China […]

News about space launch
China's Thousand Sails Megaconstellation Kicks Off with Dangerous Debris Field

China's Thousand Sails Megaconstellation Kicks Off with Dangerous Debris Field


Newsletter sign-up

Weekly statistics, charts and insights to help you stay on top of the space industry.